Location: Unspecified
(54.1780°N, 0.0000°E)
Time: 10:37:12
(UTC+00:00)

Tiros 1 - Pass Details

Date: 23 June 2019
Orbit: 630 x 664 km, 48.4° (Epoch: 16 October)

Event Time Altitude Azimuth Distance (km) Brightness Sun altitude
Exits shadow 01:30:20 - 253° (WSW) 2,985 10.2 -10.1°
Rises 01:30:27 0° 253° (WSW) 2,940 10.2 -10.1°
Reaches altitude 10° 01:32:52 10° 246° (WSW) 2,026 9.3 -10.0°
Maximum altitude 01:37:14 41° 177° (S) 924 7.5 -9.7°
Drops below altitude 10° 01:41:35 10° 107° (ESE) 2,012 9.8 -9.5°
Sets 01:43:59 0° 101° (E) 2,918 10.7 -9.3°
